This is the latest recevied weather packets stored in our database for station/object DL4YM-13. If no packets are shown the sender has not sent any weather packets the latest 10 day(s).
| Time | Temp. | Humidity | Pressure | Rain* | Wind** | Luminosity | Snow |
|---|---|---|---|---|---|---|---|
| 1777902927 | 20° C | 58% | 996.6 hPa | - | - | - | - |
| 1777902327 | 20° C | 55% | 996.6 hPa | - | - | - | - |
| 1777901726 | 20.56° C | 54% | 996.6 hPa | - | - | - | - |
| 1777901127 | 20.56° C | 53% | 996.7 hPa | - | - | - | - |
| 1777900527 | 20° C | 55% | 996.7 hPa | - | - | - | - |
| 1777899926 | 20.56° C | 53% | 996.6 hPa | - | - | - | - |
| 1777899326 | 20.56° C | 52% | 996.7 hPa | - | - | - | - |
| 1777898726 | 21.11° C | 50% | 996.7 hPa | - | - | - | - |
| 1777898126 | 21.11° C | 50% | 996.7 hPa | - | - | - | - |
| 1777897526 | 21.67° C | 49% | 996.9 hPa | - | - | - | - |
| 1777896926 | 22.78° C | 46% | 996.8 hPa | - | - | - | - |
| 1777896326 | 21.67° C | 50% | 996.8 hPa | - | - | - | - |
| 1777895726 | 21.11° C | 52% | 997 hPa | - | - | - | - |
| 1777895127 | 21.67° C | 56% | 997.1 hPa | - | - | - | - |
| 1777894526 | 21.11° C | 51% | 997.2 hPa | - | - | - | - |
| 1777893926 | 21.11° C | 51% | 997.2 hPa | - | - | - | - |
| 1777893327 | 20.56° C | 60% | 997.3 hPa | - | - | - | - |
| 1777892726 | 20° C | 56% | 997.4 hPa | - | - | - | - |
| 1777892127 | 19.44° C | 57% | 997.5 hPa | - | - | - | - |
| 1777891527 | 19.44° C | 57% | 997.5 hPa | - | - | - | - |
| 1777890926 | 20° C | 58% | 997.5 hPa | - | - | - | - |
| 1777890327 | 19.44° C | 57% | 997.6 hPa | - | - | - | - |
| 1777889727 | 18.89° C | 61% | 997.6 hPa | - | - | - | - |
| 1777889127 | 18.89° C | 61% | 997.7 hPa | - | - | - | - |
| 1777888527 | 18.89° C | 60% | 997.6 hPa | - | - | - | - |
* Rain since midnight (hover to see other rain measurements)
** Current wind speed in m/s (hover to see current wind gust speed)